ATLAS 5 CENTAUR DEB, 44681

Orbit data source: Space-Track

ATLAS 5 CENTAUR DEB, 44681 is space debris in HEO originally from a launch on Wed, 17 Oct 2018 UTC launched from the Air Force Eastern Test Range (AFETR). Debris objects in space refer to the collection of defunct objects orbiting the Earth. Examples of debris include non-operational satellites, rocket bodies, and fragments generated from explosions, collisions, or faulty payload assembly.

Loading next visibility...
Identifier
44681, 2018-079AT
Orbit
HEO
Last TLE update
9 months ago
Origin
Manufacturer
ULA Decatur
Mission
Spacecraft
Bus & Motor
Unknown
Mass
Unknown
Launch date (UTC)
2018-10-17 (7 years ago)
Launch vehicle
Unknown
Launch site
Air Force Eastern Test Range (AFETR)
Object type
Payload
Rocket body
Debris
Shape & HBR
Unknown
Radar Cross Section
RCS unknown

Expand to show TLE details & history

TLE from 9 months ago
0 ATLAS 5 CENTAUR DEB
1 44681U 18079AT  24220.04242724 -.00000076  00000-0  00000-0 0  9997
2 44681  10.9126 115.0995 4610348 156.6732 233.4981  1.72113985 32541
Epoch: 2024-08-07T01:01Z
Definitive object data (Epoch: 2024-08-07T01:01:05.713Z)
Latitude
-0°
Longitude
143.74399°
Altitude
33,815.735 km
Speed
2.506 km/s
True Right ascension
07h 40m 16s
True Declination
0° 00' 00"
Sunlit
Object was in daylight at TLE epoch
Visualization TLE readout
Latitude
5.66839°
Longitude
149.33887°
Altitude
35,950.406 km
Speed
2.298 km/s
Apparent Right ascension
07h 48m 14s
Apparent Declination
0° 07' 53"
Sunlit
Object is in daylight
Visualization observer readout
Local Sidereal Time
17:37:21
Azimuth
315.058° NNW
Elevation
-40.077°
Doppler factor
1
Orbital elements
Apogee altitude
36,596.792 km
Perigee altitude
9,475.004 km
Semi-major axis
29,414.035 km
Eccentricity
0.4610348
Inclination
10.9126°
RAAN
115.0995°
Arg. of periapsis
156.6732°
True anomaly
203.25993°
Mean anomaly
233.4981°
Eccentric anomaly
217.43957°
Mean motion
0.43024 °/min
BSTAR
Unknown
Orbital period
836.74 mins
Loading maneuver chart data...
Loading SW <> Apogee altitude chart data...

ATLAS 5 CENTAUR DEB Visibility forecast

Observer location: undefined°, undefined°

Span
Click to sort rows by Start time (UTC) header in descending order
Start Az.
Max El. time (UTC)
Max El. Az.
Max El.
End time (UTC)
End Az.
769 mins2025-05-09 16:03:02.018Z218.832° SW2025-05-10 02:27:02.018Z174.773° S39.145°2025-05-10 04:52:02.018Z112.652° SE
|